IW5EFR Vecchia di Pontedera IT current weather conditions

sailwx.info

Wind from 338 at 3 knots gusting 7

Air temperature 23.3° C
Dewpoint 14.9° C

Last reported at 2015-May-30 11:47 UTC.
Time now 2015-May-30 12:38 UTC

Location: N 43°37' E 010°38'.
View on Google Maps.

See reports from other nearby stations

  
Tides and Currents Weather Stations Pressure Air Temp Water Temp Dewpoint Dewpoint Depression Visibility Wind Speed Wind Dir Waves Ship Positions
date/time (UTC)wind fromknots sea level pressurealtimeterstation pressurevisibilityair tempwater tempwave heightnotes
2015-May-30 11:47 338 3 gusting 7 23.3
2015-May-30 11:42 351 3 gusting 7 23.3
2015-May-30 11:37 273 1 gusting 7 23.3
2015-May-30 11:32 332 1 gusting 9 23.9
2015-May-30 11:27 313 4 gusting 9 23.9
2015-May-30 11:22 284 3 gusting 9 23.9
2015-May-30 11:17 275 5 gusting 9 23.3
2015-May-30 11:12 288 1 gusting 6 22.8
2015-May-30 11:07 312 5 gusting 6 22.8
2015-May-30 11:02 281 23.3
2015-May-30 10:52 317 0 gusting 6 23.3
2015-May-30 10:47 289 2 gusting 6 23.3
2015-May-30 10:42 189 22.8
2015-May-30 10:37 272 0 gusting 6 22.8
2015-May-30 10:32 271 5 gusting 5 22.2
2015-May-30 10:27 269 4 gusting 5 22.8
2015-May-30 10:22 193 1 gusting 4 22.2
2015-May-30 10:17 271 22.2
2015-May-30 10:12 284 4 gusting 5 22.2
2015-May-30 10:07 302 0 gusting 5 22.2
2015-May-30 10:02 295 2 gusting 5 22.2
2015-May-30 09:57 005 0 gusting 5 21.7
2015-May-30 09:52 165 1 gusting 6 21.7
2015-May-30 09:47 196 2 gusting 6 21.7
2015-May-30 09:42 267 21.7
2015-May-30 09:37 259 2 gusting 4 21.1
2015-May-30 09:34 238 1 gusting 4 21.1
2015-May-30 09:29 146 2 gusting 4 21.7
2015-May-30 09:02 131 21.1
2015-May-30 08:57 161 21.1
2015-May-30 08:52 157 0 gusting 3 21.1
2015-May-30 08:47 137 21.1
2015-May-30 08:42 143 2 gusting 4 20.6
2015-May-30 08:37 135 2 gusting 4 20.6
2015-May-30 08:32 125 0 gusting 4 20.6
2015-May-30 08:27 143 0 gusting 4 20.0
2015-May-30 08:22 156 20.0
2015-May-30 08:17 156 1 gusting 1 20.0
2015-May-30 08:12 155 20.0
2015-May-30 08:07 150 19.4
2015-May-30 08:02 150 19.4
2015-May-30 07:57 150 18.9
2015-May-30 07:52 150 0 gusting 4 18.9
2015-May-30 07:47 150 18.9
2015-May-30 07:42 150 0 gusting 1 18.9
2015-May-30 07:37 161 18.9
2015-May-30 07:32 161 0 gusting 5 18.9
2015-May-30 07:27 161 3 gusting 5 18.9
2015-May-30 07:22 161 18.3
2015-May-30 07:17 161 17.8
2015-May-30 07:12 167 0 gusting 6 17.8
2015-May-30 07:07 123 3 gusting 6 17.8
2015-May-30 07:02 122 0 gusting 6 17.2
2015-May-30 06:57 122 1 gusting 3 17.2
2015-May-30 06:52 122 2 gusting 6 16.7
2015-May-30 06:47 122 0 gusting 6 16.7
2015-May-30 06:42 122 2 gusting 5 16.1
2015-May-30 06:37 122 1 gusting 5 16.1
2015-May-30 06:32 151 2 gusting 5 16.1
2015-May-30 06:27 165 4 gusting 5 16.1
2015-May-30 06:22 134 1 gusting 5 15.6
2015-May-30 06:17 130 0 gusting 5 15.6
2015-May-30 06:12 130 2 gusting 4 15.0
2015-May-30 06:07 139 3 gusting 4 15.0
2015-May-30 06:02 139 1 gusting 4 14.4
2015-May-30 05:57 140 3 gusting 4 14.4
2015-May-30 05:52 139 2 gusting 3 14.4
2015-May-30 05:47 142 2 gusting 3 13.9
2015-May-30 05:42 148 3 gusting 4 13.9
2015-May-30 05:37 148 2 gusting 4 13.3
2015-May-30 05:32 148 3 gusting 2 13.3
2015-May-30 05:27 148 0 gusting 2 13.3
2015-May-30 05:22 148 1 gusting 5 13.3
2015-May-30 05:17 148 3 gusting 5 13.3
2015-May-30 05:12 148 2 gusting 4 13.3
2015-May-30 05:07 148 0 gusting 4 12.8
2015-May-30 05:02 148 1 gusting 4 12.8
2015-May-30 04:57 148 1 gusting 4 12.8
2015-May-30 04:52 148 2 gusting 3 12.8
2015-May-30 04:47 148 3 gusting 3 12.8
2015-May-30 04:42 149 2 gusting 4 12.2
2015-May-30 04:37 149 1 gusting 4 12.8
2015-May-30 04:32 149 1 gusting 5 12.8
2015-May-30 04:27 149 1 gusting 5 12.8
2015-May-30 04:22 149 2 gusting 4 12.8
2015-May-30 04:17 149 1 gusting 4 12.8
2015-May-30 04:12 149 1 gusting 4 12.8
2015-May-30 04:07 149 2 gusting 4 12.8
2015-May-30 04:02 150 2 gusting 4 12.8
2015-May-30 03:57 150 2 gusting 5 12.8
2015-May-30 03:52 155 2 gusting 3 12.2
2015-May-30 03:47 155 1 gusting 3 12.8
2015-May-30 03:42 155 1 gusting 3 12.2
2015-May-30 03:37 155 3 gusting 3 12.2
2015-May-30 03:32 155 1 gusting 4 12.2
2015-May-30 03:27 155 2 gusting 4 12.2
2015-May-30 03:22 155 1 gusting 3 12.2
2015-May-30 03:17 155 1 gusting 3 12.2
2015-May-30 03:12 155 2 gusting 4 12.2
2015-May-30 03:07 155 0 gusting 4 12.2
2015-May-30 03:02 155 1 gusting 4 12.2
2015-May-30 02:57 155 1 gusting 5 12.2
2015-May-30 02:52 155 2 gusting 4 12.2
2015-May-30 02:47 155 1 gusting 4 12.2
2015-May-30 02:42 155 3 gusting 3 12.2
2015-May-30 02:37 155 0 gusting 3 12.2
2015-May-30 02:33 155 1 gusting 5 12.8
2015-May-30 02:28 155 3 gusting 5 12.8
2015-May-30 02:23 155 12.8
2015-May-30 02:18 155 3 gusting 4 12.8
2015-May-30 02:02 163 0 gusting 5 12.8
2015-May-30 01:57 163 2 gusting 5 12.8
2015-May-30 01:52 154 1 gusting 5 12.8
2015-May-30 01:47 153 1 gusting 5 12.2
2015-May-30 01:42 154 2 gusting 4 12.2
2015-May-30 01:37 153 4 gusting 4 12.8
2015-May-30 01:32 156 3 gusting 5 12.8
2015-May-30 01:27 159 3 gusting 5 12.8
2015-May-30 01:22 165 2 gusting 5 12.8
2015-May-30 01:17 165 3 gusting 5 12.8
2015-May-30 01:12 165 2 gusting 4 12.8
2015-May-30 01:07 165 3 gusting 4 12.8
2015-May-30 01:02 165 3 gusting 4 12.8
2015-May-30 00:57 162 1 gusting 6 12.8
2015-May-30 00:52 162 1 gusting 5 12.8
2015-May-30 00:47 162 3 gusting 5 12.8
2015-May-30 00:42 169 3 gusting 6 12.8
2015-May-30 00:37 166 2 gusting 6 12.2
2015-May-30 00:32 166 0 gusting 6 12.2
2015-May-30 00:27 168 3 gusting 6 12.2
2015-May-30 00:22 167 2 gusting 4 12.8
2015-May-30 00:17 167 3 gusting 4 12.8
2015-May-30 00:12 167 4 gusting 4 12.8
2015-May-30 00:07 167 3 gusting 4 12.8
2015-May-30 00:02 167 2 gusting 4 12.8
2015-May-29 23:57 172 2 gusting 3 12.8
2015-May-29 23:52 172 4 gusting 4 12.8
2015-May-29 23:47 172 2 gusting 4 12.8
2015-May-29 23:42 173 2 gusting 4 12.8
2015-May-29 23:37 173 2 gusting 4 12.8
2015-May-29 23:32 173 3 gusting 5 13.3
2015-May-29 23:27 169 1 gusting 5 13.3
2015-May-29 23:22 168 13.3
2015-May-29 23:17 168 2 gusting 4 13.3
2015-May-29 23:12 171 4 gusting 3 13.3
2015-May-29 23:07 172 3 gusting 3 13.3
2015-May-29 23:02 173 2 gusting 3 13.3
2015-May-29 22:57 173 0 gusting 5 13.3
2015-May-29 22:52 173 0 gusting 3 13.3
2015-May-29 22:47 173 2 gusting 3 13.3
2015-May-29 22:42 173 3 gusting 3 13.9
2015-May-29 22:37 178 3 gusting 3 13.9
2015-May-29 22:32 186 1 gusting 1 13.9
2015-May-29 22:27 186 13.9
2015-May-29 22:22 187 0 gusting 1 13.9
2015-May-29 22:17 202 1 gusting 1 13.9
2015-May-29 22:12 202 14.4
2015-May-29 22:07 202 14.4
2015-May-29 22:02 202 0 gusting 1 14.4
2015-May-29 21:57 202 14.4
2015-May-29 21:52 202 14.4
2015-May-29 21:47 203 0 gusting 2 15.0
2015-May-29 21:42 205 15.0
2015-May-29 21:37 205 15.0
2015-May-29 21:32 209 15.6
2015-May-29 21:27 209 0 gusting 0 15.6
2015-May-29 21:22 209 0 gusting 2 16.1
2015-May-29 21:17 211 16.1
2015-May-29 21:12 213 16.1
2015-May-29 21:07 213 16.1
2015-May-29 21:02 213 16.1
2015-May-29 20:57 229 16.7
2015-May-29 20:52 229 16.7
2015-May-29 20:47 229 17.2
2015-May-29 20:42 229 17.2
2015-May-29 20:37 240 17.8
2015-May-29 20:32 267 17.8
2015-May-29 20:27 267 17.8
2015-May-29 20:22 267 17.8
2015-May-29 20:17 267 18.3
2015-May-29 20:01 267 18.3
2015-May-29 19:56 267 18.3
2015-May-29 19:51 267 18.3
2015-May-29 19:46 267 1 gusting 3 18.3
2015-May-29 19:41 267 18.3
2015-May-29 19:36 267 18.9
2015-May-29 19:31 267 18.9
2015-May-29 19:26 267 18.9
2015-May-29 19:21 267 1 gusting 6 18.9
2015-May-29 19:16 262 3 gusting 6 19.4
2015-May-29 19:11 257 0 gusting 6 19.4
2015-May-29 19:06 261 1 gusting 6 19.4
2015-May-29 19:01 265 2 gusting 6 19.4
2015-May-29 18:56 278 1 gusting 6 20.0
2015-May-29 18:51 274 1 gusting 5 20.0
2015-May-29 18:46 265 2 gusting 5 20.0
2015-May-29 18:41 280 4 gusting 6 20.6
2015-May-29 18:36 281 2 gusting 6 20.6
2015-May-29 18:31 277 2 gusting 6 20.6
2015-May-29 18:26 276 1 gusting 6 21.1
2015-May-29 18:21 265 3 gusting 5 21.1
2015-May-29 18:16 271 1 gusting 5 21.1
2015-May-29 18:11 273 21.7
2015-May-29 18:06 249 4 gusting 6 21.7
2015-May-29 18:01 290 2 gusting 6 21.7
2015-May-29 17:56 281 3 gusting 6 21.7
2015-May-29 17:51 284 0 gusting 7 21.7
2015-May-29 17:46 305 2 gusting 7 22.2
2015-May-29 17:41 293 0 gusting 6 22.2
2015-May-29 17:36 265 3 gusting 6 22.2
2015-May-29 17:33 287 5 gusting 7 22.2
2015-May-29 17:28 281 22.8
2015-May-29 17:23 284 0 gusting 7 22.8
2015-May-29 17:04 254 0 gusting 6 22.8
2015-May-29 16:59 294 3 gusting 7 22.8
2015-May-29 16:54 285 2 gusting 7 22.8
2015-May-29 16:49 258 3 gusting 8 22.8
2015-May-29 16:44 261 5 gusting 8 22.8
2015-May-29 16:39 327 1 gusting 8 23.3
2015-May-29 16:34 256 4 gusting 8 23.3
2015-May-29 16:29 322 3 gusting 8 23.3
2015-May-29 16:24 281 1 gusting 8 23.3
2015-May-29 16:19 308 5 gusting 10 23.3
2015-May-29 16:14 276 4 gusting 10 23.3
2015-May-29 16:09 272 3 gusting 9 23.3
2015-May-29 16:04 326 6 gusting 9 23.3
2015-May-29 15:59 265 6 gusting 11 23.9
2015-May-29 15:54 274 4 gusting 11 23.9
2015-May-29 15:49 325 4 gusting 11 23.9
2015-May-29 15:44 274 6 gusting 11 23.9
2015-May-29 15:39 305 4 gusting 12 23.9
2015-May-29 15:34 342 1 gusting 12 23.9
2015-May-29 15:29 273 3 gusting 12 23.9
2015-May-29 15:24 286 6 gusting 12 23.9
2015-May-29 15:19 273 6 gusting 9 23.9
2015-May-29 15:14 286 6 gusting 9 23.9
2015-May-29 15:09 317 5 gusting 9 24.4
2015-May-29 15:04 297 3 gusting 9 24.4
2015-May-29 14:59 290 8 gusting 9 24.4
2015-May-29 14:54 332 3 gusting 9 24.4
2015-May-29 14:49 309 3 gusting 9 24.4
2015-May-29 14:44 275 6 gusting 9 24.4
2015-May-29 14:39 340 6 gusting 11 24.4
2015-May-29 14:34 272 6 gusting 11 24.4
2015-May-29 14:29 271 3 gusting 9 24.4
2015-May-29 14:24 284 8 gusting 9 24.4
2015-May-29 14:19 311 5 gusting 10 24.4
2015-May-29 14:14 273 2 gusting 10 24.4
2015-May-29 14:09 248 3 gusting 9 24.4
2015-May-29 14:04 257 3 gusting 9 25.0
2015-May-29 13:59 281 7 gusting 9 25.0
2015-May-29 13:54 289 3 gusting 9 25.0
2015-May-29 13:49 277 24.4
2015-May-29 13:44 275 1 gusting 10 24.4
2015-May-29 13:39 278 5 gusting 10 24.4
2015-May-29 13:34 284 5 gusting 10 25.0
2015-May-29 13:29 246 3 gusting 11 25.0
2015-May-29 13:24 284 3 gusting 11 24.4
2015-May-29 13:19 317 2 gusting 8 24.4
2015-May-29 13:14 291 4 gusting 8 24.4
2015-May-29 13:09 311 7 gusting 9 24.4
2015-May-29 13:04 306 7 gusting 9 24.4
2015-May-29 12:59 265 3 gusting 9 24.4
2015-May-29 12:54 296 5 gusting 9 24.4
2015-May-29 12:49 288 2 gusting 10 24.4
2015-May-29 12:44 292 0 gusting 10 24.4
2015-May-29 12:39 271 3 gusting 11 24.4
2015-May-29 12:34 289 4 gusting 11 24.4
2015-May-29 12:29 312 3 gusting 11 24.4
2015-May-29 12:24 267 6 gusting 11 23.9
2015-May-29 12:19 311 6 gusting 7 23.9
2015-May-29 12:14 253 3 gusting 7 23.9
2015-May-29 12:09 257 0 gusting 10 23.9
2015-May-29 12:04 261 4 gusting 10 23.9
2015-May-29 11:59 275 2 gusting 8 23.9
2015-May-29 11:54 306 0 gusting 8 23.9
2015-May-29 11:49 284 8 gusting 7 23.9
2015-May-29 11:44 341 6 gusting 7 24.4
2015-May-29 11:39 258 23.9
2015-May-29 11:34 252 3 gusting 10 23.9
2015-May-29 11:29 265 4 gusting 6 23.9
2015-May-29 11:24 270 3 gusting 6 23.9
2015-May-29 11:19 327 6 gusting 6 23.9
2015-May-29 11:14 304 4 gusting 6 23.9
2015-May-29 11:09 292 1 gusting 6 23.3
2015-May-29 11:04 261 1 gusting 6 23.3
2015-May-29 10:59 283 5 gusting 8 23.3
2015-May-29 10:54 290 2 gusting 8 23.3
2015-May-29 10:44 303 2 gusting 7 22.8
2015-May-29 10:39 279 4 gusting 7 22.8
2015-May-29 10:34 270 0 gusting 7 22.8
2015-May-29 10:29 301 3 gusting 5 22.8
2015-May-29 10:24 267 5 gusting 5 22.8
2015-May-29 10:19 265 1 gusting 5 22.8
2015-May-29 10:14 183 0 gusting 5 22.2
2015-May-29 10:09 209 1 gusting 6 22.2
2015-May-29 10:04 268 0 gusting 6 22.2
2015-May-29 09:59 247 22.2
2015-May-29 09:54 268 1 gusting 6 21.7
2015-May-29 09:49 275 21.7
2015-May-29 09:44 280 3 gusting 6 21.7
2015-May-29 09:39 336 3 gusting 6 21.7
2015-May-29 09:34 299 4 gusting 6 21.7
2015-May-29 09:29 317 21.7
2015-May-29 09:24 333 1 gusting 4 21.1
2015-May-29 09:19 277 3 gusting 4 21.1
2015-May-29 09:14 342 0 gusting 4 21.1
2015-May-29 09:09 341 20.6
2015-May-29 09:04 283 3 gusting 5 20.6
2015-May-29 08:59 281 20.6
2015-May-29 08:54 340 2 gusting 4 20.6
2015-May-29 08:49 302 0 gusting 6 20.6
2015-May-29 08:44 296 4 gusting 6 20.0
2015-May-29 08:39 281 20.0
2015-May-29 08:34 281 3 gusting 6 20.0
2015-May-29 08:29 331 2 gusting 4 20.0
2015-May-29 08:24 270 3 gusting 4 20.0
2015-May-29 08:19 292 3 gusting 5 20.0
2015-May-29 08:14 271 19.4
2015-May-29 08:09 335 2 gusting 3 19.4
2015-May-29 08:04 338 19.4
2015-May-29 07:59 009 2 gusting 4 19.4
2015-May-29 07:54 088 19.4
2015-May-29 07:49 088 18.9
2015-May-29 07:44 155 18.9
2015-May-29 07:39 155 18.9
2015-May-29 07:34 155 1 gusting 3 18.9
2015-May-29 07:29 155 18.9
2015-May-29 07:24 155 2 gusting 2 18.9
2015-May-29 07:19 155 18.3
2015-May-29 07:14 155 17.8
2015-May-29 07:09 155 17.8
2015-May-29 07:04 155 17.2
2015-May-29 06:59 155 2 gusting 0 17.2
2015-May-29 06:54 155 17.2
2015-May-29 06:49 155 17.2
2015-May-29 06:44 155 16.7
2015-May-29 06:39 155 16.1
2015-May-29 06:34 155 16.1
2015-May-29 06:29 155 0 gusting 1 15.6
2015-May-29 06:24 155 2 gusting 1 15.6
2015-May-29 06:19 155 1 gusting 3 15.0
2015-May-29 06:14 155 15.0
2015-May-29 06:09 155 14.4
2015-May-29 06:04 155 13.9
2015-May-29 05:59 155 2 gusting 0 13.9
2015-May-29 05:54 155 13.9
2015-May-29 05:49 155 13.9
2015-May-29 05:44 155 13.9
2015-May-29 05:39 155 13.3
2015-May-29 05:34 155 13.3
2015-May-29 05:29 155 0 gusting 2 12.8
2015-May-29 05:24 155 12.2
2015-May-29 05:19 155 12.2
2015-May-29 05:14 155 0 gusting 2 11.7
2015-May-29 05:09 155 0 gusting 2 11.7
2015-May-29 05:04 155 11.7
2015-May-29 04:59 155 0 gusting 4 11.1
2015-May-29 04:54 155 11.1
2015-May-29 04:49 155 1 gusting 3 10.6
2015-May-29 04:44 155 0 gusting 3 10.6
2015-May-29 04:39 155 2 gusting 5 10.6
2015-May-29 04:34 155 2 gusting 5 10.6
2015-May-29 04:29 155 3 gusting 4 10.6
2015-May-29 04:24 155 2 gusting 4 10.0
2015-May-29 04:19 155 3 gusting 2 10.0
2015-May-29 04:14 159 3 gusting 2 10.0
2015-May-29 04:09 159 0 gusting 3 10.0
2015-May-29 04:04 159 0 gusting 3 10.0
2015-May-29 03:59 159 2 gusting 3 10.0
2015-May-29 03:54 159 10.0
2015-May-29 03:49 159 1 gusting 3 10.0
2015-May-29 03:44 159 2 gusting 3 10.0
2015-May-29 03:39 159 2 gusting 3 10.0
2015-May-29 03:34 159 1 gusting 3 10.0
2015-May-29 03:29 159 1 gusting 3 10.0
2015-May-29 03:24 159 1 gusting 3 10.0
2015-May-29 03:19 159 0 gusting 4 10.0
2015-May-29 03:14 159 2 gusting 4 10.0
2015-May-29 03:09 159 1 gusting 3 10.0
2015-May-29 03:04 159 1 gusting 3 10.0
2015-May-29 02:59 159 1 gusting 4 10.6
2015-May-29 02:54 159 3 gusting 4 10.6
2015-May-29 02:49 159 1 gusting 4 10.6
2015-May-29 02:44 159 1 gusting 4 10.6
2015-May-29 02:39 159 2 gusting 4 10.6
2015-May-29 02:34 159 2 gusting 4 10.6
2015-May-29 02:29 159 0 gusting 4 10.6
2015-May-29 02:24 159 1 gusting 4 10.6
2015-May-29 02:19 159 3 gusting 4 10.6
2015-May-29 02:14 160 2 gusting 4 10.6
2015-May-29 02:09 163 2 gusting 4 10.6
2015-May-29 02:04 163 2 gusting 4 11.1
2015-May-29 01:59 163 4 gusting 4 11.1
2015-May-29 01:54 163 2 gusting 4 11.1
2015-May-29 01:49 167 3 gusting 4 11.1
2015-May-29 01:44 167 2 gusting 4 10.6
2015-May-29 01:39 167 4 gusting 5 10.6
2015-May-29 01:34 167 2 gusting 5 10.6
2015-May-29 01:29 167 2 gusting 4 10.6
2015-May-29 01:24 170 1 gusting 4 10.6
2015-May-29 01:19 170 0 gusting 4 11.1
2015-May-29 01:14 175 1 gusting 4 11.1
2015-May-29 01:09 165 0 gusting 5 11.1
2015-May-29 01:04 165 0 gusting 5 11.1
2015-May-29 00:59 161 3 gusting 4 11.1
2015-May-29 00:54 161 4 gusting 4 11.1
2015-May-29 00:49 161 0 gusting 3 11.1
2015-May-29 00:44 161 11.1
2015-May-29 00:39 161 1 gusting 2 11.7
2015-May-29 00:34 161 2 gusting 2 11.7
2015-May-29 00:29 161 3 gusting 2 11.7
2015-May-29 00:24 161 1 gusting 2 11.7
2015-May-29 00:19 161 11.7
2015-May-29 00:14 161 11.7
2015-May-29 00:09 161 0 gusting 3 11.7
2015-May-29 00:04 161 0 gusting 3 12.2
2015-May-28 23:59 161 12.2
2015-May-28 23:54 161 2 gusting 3 12.2
2015-May-28 23:49 161 1 gusting 4 12.2
2015-May-28 23:44 161 2 gusting 4 12.2
2015-May-28 23:39 161 1 gusting 4 12.2
2015-May-28 23:34 161 2 gusting 4 12.2
2015-May-28 23:29 161 3 gusting 4 12.2
2015-May-28 23:24 161 3 gusting 4 12.2
2015-May-28 23:19 159 1 gusting 5 12.2
2015-May-28 23:14 159 2 gusting 5 12.2
2015-May-28 23:09 162 1 gusting 4 12.2
2015-May-28 23:04 163 3 gusting 4 12.2
2015-May-28 22:59 167 2 gusting 3 12.2
2015-May-28 22:54 167 3 gusting 3 12.8
2015-May-28 22:49 172 2 gusting 4 12.8
2015-May-28 22:44 172 2 gusting 4 12.8
2015-May-28 22:39 172 3 gusting 4 12.8
2015-May-28 22:34 172 2 gusting 4 12.8
2015-May-28 22:29 172 1 gusting 5 12.8
2015-May-28 22:24 172 3 gusting 5 13.3
2015-May-28 22:19 173 3 gusting 4 13.3
2015-May-28 22:14 172 3 gusting 4 13.3
2015-May-28 22:09 174 4 gusting 2 13.3
2015-May-28 22:04 178 2 gusting 2 13.3
2015-May-28 21:59 178 2 gusting 2 13.3
2015-May-28 21:54 194 2 gusting 2 13.3
2015-May-28 21:49 194 13.3
2015-May-28 21:44 194 13.3
2015-May-28 21:39 194 13.3
2015-May-28 21:34 194 13.9
2015-May-28 21:29 194 0 gusting 0 13.9
2015-May-28 21:24 196 0 gusting 0 13.9
2015-May-28 21:19 196 13.9
2015-May-28 21:14 196 13.9
2015-May-28 21:09 196 13.9
2015-May-28 21:04 192 13.9
2015-May-28 21:00 192 0 gusting 2 13.9
2015-May-28 20:55 189 1 gusting 2 14.4
2015-May-28 20:50 190 0 gusting 1 14.4
2015-May-28 20:45 200 0 gusting 1 15.0
2015-May-28 20:40 207 15.0
2015-May-28 20:35 213 15.6
2015-May-28 20:30 214 0 gusting 0 15.6
2015-May-28 20:25 215 15.6
2015-May-28 20:20 215 0 gusting 1 16.1
2015-May-28 20:15 221 16.7
2015-May-28 20:10 221 16.7
2015-May-28 20:05 221 17.2
2015-May-28 20:00 221 1 gusting 0 17.8
2015-May-28 19:55 259 17.8
2015-May-28 19:50 259 17.8
2015-May-28 19:45 259 18.3
2015-May-28 19:40 259 18.3
2015-May-28 19:35 259 18.3
2015-May-28 19:30 259 18.3
2015-May-28 19:25 259 18.3
2015-May-28 19:20 259 0 gusting 3 18.3
2015-May-28 19:15 259 18.9
2015-May-28 18:59 259 2 gusting 3 18.9
2015-May-28 18:54 259 3 gusting 3 18.9
2015-May-28 18:49 269 0 gusting 4 19.4
2015-May-28 18:44 269 1 gusting 4 19.4
2015-May-28 18:39 258 1 gusting 3 19.4
2015-May-28 18:34 258 2 gusting 3 20.0
2015-May-28 18:30 254 1 gusting 6 20.0
2015-May-28 18:25 254 2 gusting 6 20.0
2015-May-28 18:20 250 1 gusting 6 20.6
2015-May-28 18:15 250 20.6
2015-May-28 17:59 277 5 gusting 7 21.1
2015-May-28 17:54 264 21.1
2015-May-28 17:49 281 21.1
2015-May-28 17:44 252 5 gusting 7 21.1
2015-May-28 17:39 299 4 gusting 8 21.1
2015-May-28 17:34 301 1 gusting 8 21.1
2015-May-28 17:29 278 2 gusting 11 21.1
2015-May-28 17:24 284 6 gusting 11 21.7
2015-May-28 17:19 265 1 gusting 11 21.7
2015-May-28 17:14 266 5 gusting 11 21.7
2015-May-28 16:58 259 2 gusting 7 21.7
2015-May-28 16:53 318 4 gusting 7 21.7
2015-May-28 16:48 276 3 gusting 9 22.2
2015-May-28 16:43 296 5 gusting 9 22.2
2015-May-28 16:38 259 5 gusting 9 22.2
2015-May-28 16:33 283 2 gusting 9 22.2
2015-May-28 16:29 263 6 gusting 10 22.2
2015-May-28 16:24 314 5 gusting 10 22.2
2015-May-28 16:19 264 2 gusting 12 22.2
2015-May-28 16:14 302 5 gusting 12 22.2
2015-May-28 15:58 293 9 gusting 12 22.8
2015-May-28 15:53 261 6 gusting 12 22.8
2015-May-28 15:48 261 4 gusting 11 22.8
2015-May-28 15:43 305 4 gusting 11 22.8
2015-May-28 15:38 271 2 gusting 10 22.8
2015-May-28 15:33 281 1 gusting 10 22.8
2015-May-28 15:28 309 3 gusting 10 22.8
2015-May-28 15:23 253 2 gusting 10 22.8
2015-May-28 15:18 277 1 gusting 10 22.8
2015-May-28 15:13 311 2 gusting 10 22.8
2015-May-28 15:08 279 6 gusting 10 22.8
2015-May-28 15:03 265 9 gusting 10 22.8
2015-May-28 14:58 292 6 gusting 10 22.8
2015-May-28 14:53 262 9 gusting 10 23.3
2015-May-28 14:48 314 4 gusting 10 22.8
2015-May-28 14:43 261 4 gusting 11 22.8
2015-May-28 14:38 306 3 gusting 11 22.8
2015-May-28 14:33 273 5 gusting 11 22.8
2015-May-28 14:28 248 4 gusting 11 23.3
2015-May-28 14:23 246 3 gusting 11 23.3
2015-May-28 14:18 219 5 gusting 12 23.3
2015-May-28 14:13 337 3 gusting 12 23.3
2015-May-28 14:08 317 3 gusting 12 23.3
2015-May-28 14:03 313 6 gusting 12 23.3
2015-May-28 13:58 331 6 gusting 11 23.3
2015-May-28 13:53 269 1 gusting 12 23.3
2015-May-28 13:48 280 4 gusting 12 23.3
2015-May-28 13:43 307 5 gusting 10 23.9
2015-May-28 13:38 275 2 gusting 10 23.3
2015-May-28 13:33 331 4 gusting 11 23.3
2015-May-28 13:28 279 2 gusting 11 23.3
2015-May-28 13:23 311 6 gusting 10 23.3
2015-May-28 13:18 331 4 gusting 10 23.9
2015-May-28 13:13 304 2 gusting 10 23.9
2015-May-28 13:08 307 4 gusting 10 23.9
2015-May-28 13:03 256 5 gusting 10 23.9
2015-May-28 12:58 264 3 gusting 10 23.9
2015-May-28 12:53 335 9 gusting 9 23.9
2015-May-28 12:48 286 2 gusting 9 23.3
2015-May-28 12:43 261 1 gusting 9 23.3
2015-May-28 12:38 282 8 gusting 10 23.9
2015-May-28 12:33 296 0 gusting 11 23.9
2015-May-28 12:28 264 1 gusting 11 23.9
2015-May-28 12:23 259 4 gusting 8 23.3
2015-May-28 12:18 284 1 gusting 8 23.3
2015-May-28 12:13 251 2 gusting 9 23.3
2015-May-28 12:08 287 1 gusting 9 23.3
2015-May-28 12:03 263 7 gusting 9 23.3